Home   Weather   Amersfoort   Past weeks

Flag for Netherlands Past Weather in Amersfoort, Netherlands — Yesterday and Last 2 Weeks

Now
48 °F

Rain. Broken clouds.


Feels Like: 42 °F
Forecast: 37 / 46 °F
Wind: 17 mph from Southwest

Location: Deelen

Current Time: Feb 23, 2017 at 8:31:45 am

Latest Report: Feb 23, 2017 at 7:55 am


Visibility: 2 mi

Pressure: 29.47 "Hg

Humidity: 94%

Dew Point: 46 °F

Location of AmersfoortLocation

Past Weather in Amersfoort — Graph

°F

Amersfoort Temperature Yesterday

Maximum temperature yesterday: 52 °F (at 1:25 am)
Minimum temperature yesterday: 46 °F (at 3:55 pm)
Average temperature yesterday: 49 °F

High & Low Weather Summary for the Past Weeks

 TemperatureHumidityPressure
High57 °F (Feb 15, 2:25 pm)100% (Feb 11, 11:25 pm)30.51 "Hg (Feb 11, 11:25 pm)
Low25 °F (Feb 9, 10:25 pm)47% (Feb 15, 12:55 pm)29.47 "Hg (Feb 23, 7:25 am)
Average39 °F86%30.19 "Hg
* Reported Feb 8 7:25 am — Feb 23 7:25 am, Amersfoort, Weather by CustomWeather, © 2017

Note: Actual official high and low records may vary slightly from our data, if they occured in-between our weather recording intervals... More about our weather records

Advertising

Amersfoort Weather History for the Previous 24 Hours

Scroll right to see more
 ConditionsComfort  
Time TempWeatherWind HumidityBarometerVisibility
7:25 am
Thu, Feb 23
48 °FRain showers. Mostly cloudy.16 mph94%29.47 "Hg2 mi
6:55 am48 °FLight rain. Partly cloudy.18 mph94%29.50 "Hg3 mi
6:25 am48 °FPartly cloudy.20 mph94%29.50 "Hg2 mi
5:55 am48 °FDrizzle. Overcast.17 mph94%29.53 "Hg2 mi
5:25 am43 °FRain. Mostly cloudy.1 mph100%29.53 "Hg1 mi
4:55 am45 °FDrizzle. Mostly cloudy.2 mph100%29.56 "Hg2 mi
4:25 am45 °FRain. Low clouds.5 mph100%29.59 "Hg3 mi
3:55 am46 °FDrizzle. Overcast.7 mph93%29.59 "Hg3 mi
3:25 am46 °FLight rain. Overcast.7 mph93%29.59 "Hg2 mi
2:55 am46 °FDrizzle. Mostly cloudy.6 mph93%29.62 "Hg2 mi
2:25 am46 °FDrizzle. Mostly cloudy.7 mph100%29.62 "Hg6 mi
1:55 am46 °FPartly cloudy.10 mph100%29.62 "Hg3 mi
1:25 am46 °FLight rain. Partly cloudy.9 mph100%29.65 "Hg2 mi
12:55 am48 °FPartly cloudy.9 mph94%29.65 "Hg3 mi
12:25 am48 °FLight rain. Mostly cloudy.9 mph94%29.65 "Hg3 mi
11:55 pm
Wed, Feb 22
46 °FDrizzle. Overcast.8 mph100%29.65 "Hg4 mi
11:25 pm46 °FLight rain. Partly cloudy.8 mph100%29.65 "Hg6 mi
10:55 pm46 °FPartly cloudy.10 mph100%29.65 "Hg6 mi
10:25 pm46 °FPartly cloudy.12 mph93%29.65 "Hg6 mi
9:55 pm46 °FPartly cloudy.13 mph93%29.65 "HgN/A
9:25 pm46 °FPartly cloudy.13 mph93%29.65 "HgN/A
8:55 pm46 °FPartly cloudy.14 mph93%29.65 "HgN/A
8:25 pm46 °FLight rain. Partly cloudy.14 mph93%29.65 "Hg6 mi
7:55 pm46 °FLight rain. Partly cloudy.14 mph93%29.65 "Hg6 mi
7:25 pm46 °FLight rain. Partly cloudy.13 mph93%29.65 "HgN/A
6:55 pm46 °FLight rain. Partly cloudy.13 mph93%29.65 "HgN/A
6:25 pm46 °FPassing clouds.13 mph93%29.65 "HgN/A
5:55 pm48 °FLight rain. Broken clouds.13 mph94%29.65 "Hg6 mi
5:25 pm46 °FLight rain. Partly sunny.10 mph93%29.65 "HgN/A
4:55 pm46 °FSprinkles. Broken clouds.8 mph93%29.65 "Hg6 mi
4:25 pm46 °FRain. Partly sunny.12 mph93%29.65 "Hg4 mi
3:55 pm46 °FRain. Broken clouds.8 mph100%29.65 "Hg3 mi
3:25 pm48 °FRain. Broken clouds.14 mph94%29.62 "Hg3 mi
2:55 pm50 °FSprinkles. Broken clouds.18 mph94%29.62 "Hg3 mi
2:25 pm50 °FDrizzle. Broken clouds.20 mph94%29.62 "HgN/A
1:55 pm50 °FDrizzle. Partly sunny.18 mph94%29.65 "HgN/A
1:25 pm50 °FDrizzle. Mostly cloudy.20 mph94%29.65 "HgN/A
12:55 pm50 °FDrizzle. Mostly cloudy.22 mph88%29.65 "HgN/A
12:25 pm50 °FMostly cloudy.20 mph88%29.68 "HgN/A
11:55 am50 °FMostly cloudy.17 mph88%29.68 "HgN/A
11:25 am50 °FOvercast.20 mph88%29.68 "HgN/A
10:55 am50 °FMostly cloudy.20 mph88%29.68 "HgN/A
10:25 am50 °FMostly cloudy.18 mph88%29.68 "HgN/A
9:55 am50 °FLow clouds.21 mph88%29.68 "HgN/A
9:25 am50 °FLow clouds.20 mph88%29.68 "HgN/A
8:55 am50 °FMostly cloudy.17 mph88%29.68 "HgN/A
8:25 am48 °FMore clouds than sun.18 mph94%29.68 "HgN/A
Weather by CustomWeather, © 2017

See weather overviewHow to use our weather pages